TimeEDT,TemperatureF,Dew PointF,Humidity,Sea Level PressureIn,VisibilityMPH,Wind Direction,Wind SpeedMPH,Gust SpeedMPH,PrecipitationIn,Events,Conditions,WindDirDegrees,DateUTC
12:16 AM,48.2,45.0,89,29.95,7.0,ESE,5.8,-,N/A,,Clear,120,2012-10-03 04:16:00
12:35 AM,48.2,45.1,89,29.95,3.0,Calm,Calm,-,N/A,,Clear,0,2012-10-03 04:35:00
12:55 AM,48.2,45.0,89,29.95,5.0,Calm,Calm,-,N/A,,Clear,0,2012-10-03 04:55:00
1:15 AM,48.2,45.1,89,29.94,10.0,East,3.5,-,N/A,,Clear,80,2012-10-03 05:15:00
1:35 AM,48.2,45.1,89,29.94,10.0,ENE,3.5,-,N/A,,Clear,70,2012-10-03 05:35:00
1:55 AM,48.2,44.8,88,29.94,10.0,Calm,Calm,-,N/A,,Clear,0,2012-10-03 05:55:00
2:15 AM,48.2,44.8,88,29.95,10.0,Calm,Calm,-,N/A,,Clear,0,2012-10-03 06:15:00
2:35 AM,45.7,42.4,88,29.95,4.0,Calm,Calm,-,N/A,,Clear,0,2012-10-03 06:35:00
2:55 AM,43.7,40.8,90,29.94,0.5,Calm,Calm,-,N/A,Fog,Fog,0,2012-10-03 06:55:00
3:15 AM,43.0,40.3,90,29.95,10.0,Calm,Calm,-,N/A,,Clear,0,2012-10-03 07:15:00
3:35 AM,44.1,41.4,90,29.95,7.0,Calm,Calm,-,N/A,,Clear,0,2012-10-03 07:35:00
3:54 AM,40.8,38.1,90,29.95,10.0,Calm,Calm,-,N/A,,Scattered Clouds,0,2012-10-03 07:54:00
4:15 AM,45.5,42.8,90,29.95,10.0,Calm,Calm,-,N/A,,Scattered Clouds,0,2012-10-03 08:15:00
4:35 AM,45.5,41.9,87,29.95,10.0,Calm,Calm,-,N/A,,Overcast,0,2012-10-03 08:35:00
5:15 AM,48.2,43.7,84,29.95,10.0,ESE,4.6,-,N/A,,Overcast,110,2012-10-03 09:15:00
5:35 AM,48.2,43.7,84,29.95,10.0,East,4.6,-,N/A,,Overcast,90,2012-10-03 09:35:00
5:55 AM,48.2,44.2,86,29.96,10.0,East,3.5,-,N/A,,Scattered Clouds,80,2012-10-03 09:55:00
6:15 AM,48.2,43.9,85,29.96,10.0,ESE,3.5,-,N/A,,Clear,110,2012-10-03 10:15:00
6:55 AM,48.2,44.2,86,29.97,10.0,ESE,3.5,-,N/A,,Scattered Clouds,110,2012-10-03 10:55:00
7:15 AM,49.3,44.8,84,29.97,10.0,Calm,Calm,-,N/A,,Mostly Cloudy,0,2012-10-03 11:15:00
7:35 AM,49.6,45.0,84,29.97,10.0,Calm,Calm,-,N/A,,Overcast,0,2012-10-03 11:35:00
7:55 AM,49.3,44.8,84,29.97,10.0,Calm,Calm,-,N/A,,Overcast,0,2012-10-03 11:55:00
8:15 AM,48.6,44.6,86,29.97,10.0,Calm,Calm,-,N/A,,Mostly Cloudy,0,2012-10-03 12:15:00
8:36 AM,49.3,45.0,85,29.97,10.0,Calm,Calm,-,N/A,,Mostly Cloudy,0,2012-10-03 12:36:00
8:55 AM,50.5,46.4,86,29.98,10.0,Calm,Calm,-,N/A,,Overcast,0,2012-10-03 12:55:00
9:15 AM,52.9,47.8,83,29.98,10.0,Calm,Calm,-,N/A,,Overcast,0,2012-10-03 13:15:00
9:35 AM,53.1,47.8,82,29.99,10.0,East,3.5,-,N/A,,Overcast,80,2012-10-03 13:35:00
9:55 AM,53.1,47.5,81,29.99,10.0,East,4.6,-,N/A,,Overcast,90,2012-10-03 13:55:00
10:15 AM,55.6,48.7,78,29.99,10.0,ESE,4.6,-,N/A,,Overcast,110,2012-10-03 14:15:00
10:35 AM,55.6,48.4,77,29.99,10.0,ESE,3.5,-,N/A,,Overcast,110,2012-10-03 14:35:00
10:55 AM,59.4,49.6,70,29.99,10.0,Calm,Calm,-,N/A,,Overcast,0,2012-10-03 14:55:00
11:15 AM,60.8,50.0,68,29.97,10.0,Calm,Calm,-,N/A,,Mostly Cloudy,0,2012-10-03 15:15:00
11:35 AM,61.2,50.2,67,29.97,10.0,North,3.5,-,N/A,,Mostly Cloudy,360,2012-10-03 15:35:00
11:55 AM,63.0,50.4,63,29.97,10.0,East,3.5,-,N/A,,Mostly Cloudy,80,2012-10-03 15:55:00
12:15 PM,63.5,48.9,59,29.97,10.0,Calm,Calm,-,N/A,,Overcast,0,2012-10-03 16:15:00
12:35 PM,67.1,51.8,58,29.96,10.0,SE,4.6,-,N/A,,Mostly Cloudy,140,2012-10-03 16:35:00
12:55 PM,68.2,50.5,53,29.96,10.0,East,3.5,-,N/A,,Scattered Clouds,90,2012-10-03 16:55:00
1:15 PM,68.2,50.4,53,29.96,10.0,ESE,4.6,-,N/A,,Mostly Cloudy,110,2012-10-03 17:15:00
1:35 PM,68.2,50.9,54,29.96,10.0,East,5.8,-,N/A,,Overcast,80,2012-10-03 17:35:00
1:55 PM,68.2,52.7,58,29.95,10.0,Calm,Calm,-,N/A,,Overcast,0,2012-10-03 17:55:00
2:15 PM,63.1,51.1,65,29.96,10.0,WSW,5.8,-,N/A,,Overcast,250,2012-10-03 18:15:00
2:35 PM,63.0,48.7,60,29.95,10.0,WNW,3.5,-,N/A,,Overcast,300,2012-10-03 18:35:00
2:55 PM,61.9,49.5,64,29.95,10.0,WNW,3.5,-,N/A,,Overcast,290,2012-10-03 18:55:00
3:15 PM,61.2,49.1,65,29.96,10.0,West,4.6,-,N/A,,Overcast,280,2012-10-03 19:15:00
3:35 PM,60.8,48.7,64,29.96,10.0,WSW,3.5,-,N/A,,Overcast,250,2012-10-03 19:35:00
3:55 PM,60.8,48.4,64,29.96,10.0,Calm,Calm,-,N/A,,Overcast,0,2012-10-03 19:55:00
4:15 PM,60.8,50.0,68,29.96,10.0,Calm,Calm,-,N/A,,Overcast,0,2012-10-03 20:15:00
4:35 PM,59.2,51.1,74,29.96,10.0,WSW,5.8,-,N/A,,Light Drizzle,240,2012-10-03 20:35:00
4:56 PM,59.0,50.0,72,29.96,10.0,West,5.8,-,N/A,Rain,Light Rain,270,2012-10-03 20:56:00
5:15 PM,58.5,51.1,76,29.97,10.0,Calm,Calm,-,N/A,,Overcast,0,2012-10-03 21:15:00
5:35 PM,58.1,52.2,81,29.97,7.0,Calm,Calm,-,N/A,,Overcast,0,2012-10-03 21:35:00
5:55 PM,58.1,52.9,83,29.97,3.0,Calm,Calm,-,N/A,Rain,Rain,0,2012-10-03 21:55:00
6:15 PM,56.5,52.3,86,29.98,4.0,Calm,Calm,-,0.02,Rain,Light Rain,0,2012-10-03 22:15:00
6:35 PM,55.9,52.2,87,29.98,5.0,Calm,Calm,-,0.03,,Drizzle,0,2012-10-03 22:35:00
6:55 PM,55.6,51.8,87,29.98,5.0,SSW,3.5,-,0.03,Rain,Rain,200,2012-10-03 22:55:00
7:15 PM,55.6,52.2,88,29.99,5.0,Calm,Calm,-,N/A,Rain,Light Rain,0,2012-10-03 23:15:00
7:35 PM,55.6,52.3,89,29.99,4.0,Calm,Calm,-,0.01,,Heavy Drizzle,0,2012-10-03 23:35:00
7:55 PM,55.6,52.3,89,29.99,4.0,Calm,Calm,-,0.02,,Overcast,0,2012-10-03 23:55:00
8:15 PM,55.6,52.3,89,29.99,7.0,Calm,Calm,-,N/A,,Overcast,0,2012-10-04 00:15:00
8:35 PM,55.6,52.7,90,29.99,2.5,Calm,Calm,-,N/A,,Overcast,0,2012-10-04 00:35:00
8:55 PM,55.6,52.7,90,30.00,1.2,Calm,Calm,-,N/A,,Overcast,0,2012-10-04 00:55:00
9:15 PM,55.6,52.7,90,30.00,3.0,Calm,Calm,-,N/A,,Overcast,0,2012-10-04 01:15:00
9:34 PM,55.6,52.7,90,30.00,5.0,SE,3.5,-,N/A,,Overcast,130,2012-10-04 01:34:00
9:55 PM,55.6,52.7,90,30.00,5.0,Calm,Calm,-,N/A,,Overcast,0,2012-10-04 01:55:00
10:15 PM,55.6,52.7,90,30.00,4.0,Calm,Calm,-,N/A,,Overcast,0,2012-10-04 02:15:00
10:35 PM,55.6,52.7,90,30.00,5.0,Calm,Calm,-,N/A,,Overcast,0,2012-10-04 02:35:00
10:55 PM,55.6,52.7,90,30.00,4.0,Calm,Calm,-,N/A,,Overcast,0,2012-10-04 02:55:00
11:16 PM,55.6,52.7,90,30.00,4.0,SSE,3.5,-,N/A,,Overcast,160,2012-10-04 03:16:00
11:35 PM,55.6,52.7,90,30.00,4.0,Calm,Calm,-,N/A,,Overcast,0,2012-10-04 03:35:00
11:55 PM,55.6,52.7,90,30.01,4.0,SSE,3.5,-,N/A,,Overcast,150,2012-10-04 03:55:00